CZ-6A DEB, 60625

Orbit data source: Space-Track

CZ-6A DEB, 60625 is space debris in LEO originally from a launch on Tue, 06 Aug 2024 UTC launched from the Taiyaun Space Center, China (TSC). Debris objects in space refer to the collection of defunct objects orbiting the Earth. Examples of debris include non-operational satellites, rocket bodies, and fragments generated from explosions, collisions, or faulty payload assembly.

Loading next visibility...
Identifier
60625, 2024-140AA
Orbit
LEO
Last TLE update
18 hours ago
Origin
Manufacturer
SAST
Mission
Spacecraft
Bus & Motor
Unknown
Mass
Unknown
Launch date (UTC)
2024-08-06 (11 months ago)
Launch vehicle
Unknown
Launch site
Taiyaun Space Center, China (TSC)
Object type
Payload
Rocket body
Debris
Shape & HBR
Unknown
Radar Cross Section
Small (<0.1 m²)

Expand to show TLE details & history

TLE from 18 hours ago
0 CZ-6A DEB
1 60625U 24140AA  25189.85699424  .00002640  00000-0  74591-3 0  9993
2 60625  89.0048 312.1858 0069131  64.5262 296.3072 14.44021333 48290
Epoch: 2025-07-08T20:34Z
TLE epoch observation values (Epoch: 2025-07-08T20:34:04.302Z)
Latitude
Longitude
76.62191°
Altitude
726.776 km
Speed
7.503 km/s
True Right ascension
20h 48m 44s
True Declination
0° 00' 00"
Sunlit
Object was in full shadow at epoch
Visualization orbit readout
Latitude
33.37682°
Longitude
77.18389°
Altitude
706.414 km
Speed
7.528 km/s
Apparent Right ascension
18h 21m 01s
Apparent Declination
-1° 22' 52"
Sunlit
Object is in full shadow
Visualization observer readout
Local Sidereal Time
03:11:34
Azimuth
299.493° NW
Elevation
-32.331°
Doppler factor
1
Orbital elements
Apogee altitude
791.383 km
Perigee altitude
692.936 km
Semi-major axis
7,120.296 km
Eccentricity
0.00691
Inclination
89.0048°
RAAN
312.1858°
Arg. of periapsis
64.5262°
True anomaly
Unknown
Mean anomaly
296.3072°
Eccentric anomaly
Unknown
Mean motion
3.6124 °/min
Orbital period
99.66 mins
BSTAR
0.00074591
Loading maneuver chart data...
Loading SW <> Apogee altitude chart data...
Loading historical data...
Loading historical data...
Loading historical data...
Loading historical data...
Loading historical data...
Loading historical data...
Loading historical data...

CZ-6A DEB Visibility forecast

Observer location: undefined°, undefined°

Span
Click to sort rows by Start time (UTC) header in descending order
Start Az.
Max El. time (UTC)
Max El. Az.
Max El.
End time (UTC)
End Az.
9 mins2025-07-09 20:24:49.745Z2.741° NNE2025-07-09 20:29:49.745Z152.011° SSE44.092°2025-07-09 20:33:49.745Z179.149° S
5 mins2025-07-10 07:38:49.745Z112.888° SE2025-07-10 07:40:49.745Z78.836° E21.383°2025-07-10 07:43:49.745Z33.571° NE
6 mins2025-07-10 09:17:49.745Z226.297° WSW2025-07-10 09:20:49.745Z287.533° WNW27.399°2025-07-10 09:23:49.745Z333.479° NNW
|